When you browse on this site, cookies collect data to enhance your experience and personalize the content and advertising you see.
Visit our Privacy Policy to learn more. By continuing to use the site, you agree to this use of cookies and data.

Hourly Weather Warwick

Today, 5 July, Sunday

Time Temperature Precipitation Wind Pressure Humidity
00:00 +18°C° 0 mm 9 mps 749 mmHg 78%
01:00 +18°C° 0 mm 9 mps 749 mmHg 79%
02:00 +18°C° 0 mm 9 mps 749 mmHg 80%
03:00 +18°C° 0 mm 10 mps 749 mmHg 80%
04:00 +17°C° 0 mm 9 mps 749 mmHg 78%
05:00 +16°C° 0 mm 9 mps 749 mmHg 76%
06:00 +16°C° 0 mm 8 mps 750 mmHg 75%
07:00 +16°C° 0 mm 8 mps 750 mmHg 72%
08:00 +16°C° 0 mm 8 mps 751 mmHg 69%
09:00 +16°C° 0 mm 8 mps 752 mmHg 66%
10:00 +15°C° 0 mm 8 mps 752 mmHg 66%
11:00 +15°C° 0 mm 8 mps 752 mmHg 65%
12:00 +15°C° 0 mm 8 mps 752 mmHg 65%
13:00 +15°C° 0.1 mm 8 mps 752 mmHg 65%
14:00 +15°C° 0.1 mm 8 mps 753 mmHg 66%
15:00 +15°C° 0.1 mm 8 mps 753 mmHg 66%
16:00 +15°C° 0.1 mm 8 mps 753 mmHg 68%
17:00 +13°C° 0.1 mm 8 mps 752 mmHg 69%
18:00 +13°C° 0.1 mm 8 mps 752 mmHg 71%
19:00 +12°C° 0 mm 8 mps 753 mmHg 72%
20:00 +12°C° 0 mm 7 mps 753 mmHg 72%
21:00 +11°C° 0 mm 7 mps 753 mmHg 72%
22:00 +11°C° 0 mm 7 mps 753 mmHg 74%
23:00 +10°C° 0 mm 7 mps 753 mmHg 75%

Tomorrow, 6 July, Monday

Time Temperature Precipitation Wind Pressure Humidity
00:00 +10°C° 0 mm 6 mps 754 mmHg 77%
01:00 +10°C° 0 mm 6 mps 754 mmHg 78%
02:00 +9°C° 0 mm 6 mps 754 mmHg 80%
03:00 +9°C° 0 mm 5 mps 755 mmHg 81%
04:00 +9°C° 0 mm 6 mps 755 mmHg 79%
05:00 +10°C° 0 mm 6 mps 755 mmHg 78%
06:00 +11°C° 0 mm 7 mps 756 mmHg 76%
07:00 +11°C° 0 mm 7 mps 757 mmHg 75%
08:00 +12°C° 0 mm 7 mps 757 mmHg 73%
09:00 +13°C° 0 mm 8 mps 758 mmHg 72%
10:00 +15°C° 0 mm 8 mps 758 mmHg 68%
11:00 +16°C° 0 mm 8 mps 759 mmHg 63%
12:00 +17°C° 0 mm 8 mps 759 mmHg 59%
13:00 +17°C° 0 mm 7 mps 760 mmHg 58%
14:00 +17°C° 0 mm 7 mps 760 mmHg 57%
15:00 +17°C° 0 mm 7 mps 761 mmHg 57%
16:00 +17°C° 0 mm 6 mps 761 mmHg 59%
17:00 +16°C° 0 mm 5 mps 761 mmHg 62%
18:00 +17°C° 0 mm 4 mps 761 mmHg 65%
19:00 +14°C° 0 mm 3 mps 762 mmHg 69%
20:00 +14°C° 0 mm 2 mps 762 mmHg 74%
21:00 +12°C° 0 mm 2 mps 762 mmHg 79%
22:00 +12°C° 0 mm 2 mps 762 mmHg 82%
23:00 +10°C° 0 mm 2 mps 762 mmHg 84%

Day after tomorrow, 7 July, Tuesday

Time Temperature Precipitation Wind Pressure Humidity
00:00 +10°C° 0 mm 2 mps 762 mmHg 87%
01:00 +10°C° 0 mm 2 mps 762 mmHg 88%
02:00 +10°C° 0 mm 2 mps 762 mmHg 89%
03:00 +10°C° 0 mm 2 mps 761 mmHg 90%
04:00 +11°C° 0 mm 3 mps 761 mmHg 89%
05:00 +11°C° 0 mm 3 mps 761 mmHg 87%
06:00 +12°C° 0 mm 3 mps 760 mmHg 86%
07:00 +13°C° 0 mm 4 mps 760 mmHg 82%
08:00 +14°C° 0 mm 5 mps 760 mmHg 78%
09:00 +15°C° 0 mm 6 mps 760 mmHg 74%
10:00 +16°C° 0 mm 6 mps 759 mmHg 73%
11:00 +16°C° 0 mm 7 mps 759 mmHg 72%
12:00 +16°C° 0 mm 7 mps 758 mmHg 71%
13:00 +16°C° 0 mm 7 mps 758 mmHg 71%
14:00 +15°C° 0 mm 7 mps 757 mmHg 71%
15:00 +15°C° 0 mm 6 mps 757 mmHg 71%
16:00 +15°C° 0.3 mm 6 mps 756 mmHg 77%
17:00 +14°C° 0.3 mm 6 mps 756 mmHg 83%
18:00 +14°C° 0.3 mm 6 mps 755 mmHg 88%
19:00 +14°C° 0 mm 6 mps 755 mmHg 89%
20:00 +15°C° 0 mm 6 mps 755 mmHg 89%
21:00 +15°C° 0 mm 5 mps 755 mmHg 90%
22:00 +14°C° 0.1 mm 5 mps 755 mmHg 90%
23:00 +14°C° 0.1 mm 5 mps 755 mmHg 91%

8 July, Wednesday

Time Temperature Precipitation Wind Pressure Humidity
00:00 +13°C° 0.1 mm 4 mps 755 mmHg 91%
01:00 +13°C° 0 mm 4 mps 756 mmHg 92%
02:00 +12°C° 0 mm 4 mps 756 mmHg 92%
03:00 +11°C° 0 mm 4 mps 756 mmHg 93%
04:00 +12°C° 0 mm 4 mps 757 mmHg 92%
05:00 +12°C° 0 mm 4 mps 757 mmHg 91%
06:00 +12°C° 0 mm 4 mps 758 mmHg 90%
07:00 +13°C° 0 mm 4 mps 758 mmHg 87%
08:00 +14°C° 0 mm 3 mps 759 mmHg 83%
09:00 +14°C° 0 mm 3 mps 760 mmHg 79%
10:00 +16°C° 0 mm 3 mps 760 mmHg 74%
11:00 +17°C° 0 mm 2 mps 760 mmHg 70%
12:00 +18°C° 0 mm 2 mps 761 mmHg 65%
13:00 +19°C° 0 mm 1 mps 761 mmHg 63%
14:00 +20°C° 0 mm 1 mps 761 mmHg 62%
15:00 +18°C° 0 mm 0 mps 761 mmHg 60%
16:00 +18°C° 0 mm 0 mps 761 mmHg 62%
17:00 +18°C° 0 mm 0 mps 761 mmHg 64%
18:00 +18°C° 0 mm 0 mps 761 mmHg 66%
19:00 +18°C° 0 mm 1 mps 761 mmHg 71%
20:00 +16°C° 0 mm 1 mps 761 mmHg 76%
21:00 +15°C° 0 mm 1 mps 761 mmHg 80%
22:00 +14°C° 0 mm 1 mps 761 mmHg 83%
23:00 +14°C° 0 mm 2 mps 761 mmHg 86%

9 July, Thursday

Time Temperature Precipitation Wind Pressure Humidity
00:00 +13°C° 0 mm 2 mps 760 mmHg 88%
01:00 +13°C° 0 mm 2 mps 760 mmHg 87%
02:00 +12°C° 0 mm 3 mps 760 mmHg 87%
03:00 +13°C° 0 mm 3 mps 759 mmHg 86%
04:00 +13°C° 0 mm 4 mps 759 mmHg 85%
05:00 +13°C° 0 mm 4 mps 759 mmHg 84%
06:00 +14°C° 0 mm 5 mps 758 mmHg 83%
07:00 +15°C° 0 mm 5 mps 758 mmHg 79%
08:00 +17°C° 0 mm 6 mps 758 mmHg 75%
09:00 +18°C° 0 mm 7 mps 757 mmHg 70%
10:00 +20°C° 0 mm 7 mps 757 mmHg 70%
11:00 +21°C° 0 mm 8 mps 756 mmHg 70%
12:00 +22°C° 0 mm 8 mps 756 mmHg 69%
13:00 +21°C° 0.1 mm 8 mps 755 mmHg 72%
14:00 +21°C° 0.1 mm 8 mps 755 mmHg 75%
15:00 +20°C° 0.1 mm 8 mps 755 mmHg 78%
16:00 +18°C° 0.1 mm 8 mps 755 mmHg 77%
17:00 +17°C° 0.1 mm 7 mps 755 mmHg 76%
18:00 +17°C° 0.1 mm 7 mps 754 mmHg 76%
19:00 +16°C° 0 mm 6 mps 755 mmHg 78%
20:00 +15°C° 0 mm 5 mps 755 mmHg 81%
21:00 +14°C° 0 mm 4 mps 755 mmHg 83%
22:00 +13°C° 0 mm 4 mps 756 mmHg 85%
23:00 +12°C° 0 mm 4 mps 756 mmHg 86%

10 July, Friday

Time Temperature Precipitation Wind Pressure Humidity
00:00 +10°C° 0 mm 3 mps 756 mmHg 88%
01:00 +10°C° 0 mm 4 mps 756 mmHg 89%
02:00 +10°C° 0 mm 4 mps 756 mmHg 89%
03:00 +8°C° 0 mm 4 mps 756 mmHg 90%
04:00 +10°C° 0 mm 4 mps 756 mmHg 88%
05:00 +9°C° 0 mm 5 mps 756 mmHg 85%
06:00 +9°C° 0 mm 5 mps 757 mmHg 83%
07:00 +11°C° 0 mm 6 mps 757 mmHg 77%
08:00 +13°C° 0 mm 6 mps 757 mmHg 72%
09:00 +14°C° 0 mm 7 mps 757 mmHg 66%
10:00 +14°C° 0 mm 7 mps 757 mmHg 65%
11:00 +15°C° 0 mm 7 mps 758 mmHg 64%
12:00 +16°C° 0 mm 7 mps 758 mmHg 62%
13:00 +16°C° 0 mm 7 mps 758 mmHg 60%
14:00 +17°C° 0 mm 7 mps 758 mmHg 59%
15:00 +17°C° 0 mm 7 mps 758 mmHg 57%
16:00 +17°C° 0 mm 7 mps 758 mmHg 59%
17:00 +16°C° 0 mm 6 mps 758 mmHg 62%
18:00 +15°C° 0 mm 6 mps 759 mmHg 65%
19:00 +14°C° 0 mm 5 mps 759 mmHg 68%
20:00 +13°C° 0 mm 4 mps 760 mmHg 72%
21:00 +11°C° 0 mm 4 mps 760 mmHg 75%
22:00 +11°C° 0 mm 4 mps 761 mmHg 79%
23:00 +10°C° 0 mm 4 mps 761 mmHg 83%
Show more